,,Stat6,,Stat2,,Stat8,,Stat9,,Stat10,,Wind1,,Wind1,
time,status,PA1M_AVG,status,PR1M_SUM,status,RH1M_AVG,status,SR1M_AVG,status,TA1M_AVG,status,W1dAve1m,status,W1sAve1m,
2009-01-05, 00:00:00,VALID,917.173,VALID,0,VALID,100,VALID,-0.101885,VALID,19.727,VALID,134,VALID,0,
2009-01-05, 00:01:00,VALID,917.17,VALID,0,VALID,100,VALID,-0.0679233,VALID,19.7008,VALID,134,VALID,0,
2009-01-05, 00:02:00,VALID,917.172,VALID,0,VALID,100,VALID,-0.101885,VALID,19.7006,VALID,134,VALID,0,
2009-01-05, 00:03:00,VALID,917.166,VALID,0,VALID,100,VALID,-0.101885,VALID,19.704,VALID,134,VALID,0,
2009-01-05, 00:04:00,VALID,917.174,VALID,0,VALID,100,VALID,-0.118866,VALID,19.7008,VALID,124,VALID,0,
2009-01-05, 00:05:00,VALID,917.172,VALID,0,VALID,100,VALID,-0.118866,VALID,19.6781,VALID,120,VALID,0,
2009-01-05, 00:06:00,VALID,917.183,VALID,0,VALID,100,VALID,-0.101885,VALID,19.6716,VALID,120,VALID,0,
2009-01-05, 00:07:00,VALID,917.17,VALID,0,VALID,100,VALID,-0.0679233,VALID,19.6616,VALID,120,VALID,0,
2009-01-05, 00:08:00,VALID,917.17,VALID,0,VALID,100,VALID,-0.0339617,VALID,19.6746,VALID,120,VALID,0,
2009-01-05, 00:09:00,VALID,917.159,VALID,0,VALID,100,VALID,-0.0509425,VALID,19.6806,VALID,120,VALID,0,
2009-01-05, 00:10:00,VALID,917.161,VALID,0,VALID,100,VALID,-0.0679233,VALID,19.6846,VALID,120,VALID,0,
2009-01-05, 00:11:00,VALID,917.155,VALID,0,VALID,100,VALID,-0.0169808,VALID,19.6906,VALID,120,VALID,0,
2009-01-05, 00:12:00,VALID,917.156,VALID,0,VALID,100,VALID,-0.0339617,VALID,19.6941,VALID,120,VALID,0,
2009-01-05, 00:13:00,VALID,917.151,VALID,0,VALID,100,VALID,-0.0509425,VALID,19.7003,VALID,120,VALID,0,
2009-01-05, 00:14:00,VALID,917.132,VALID,0,VALID,100,VALID,-0.0339617,VALID,19.6833,VALID,120,VALID,0,
2009-01-05, 00:15:00,VALID,917.139,VALID,0,VALID,100,VALID,-0.0339617,VALID,19.7003,VALID,107,VALID,0,
2009-01-05, 00:16:00,VALID,917.13,VALID,0,VALID,100,VALID,-0.0169808,VALID,19.7065,VALID,100,VALID,0,
2009-01-05, 00:17:00,VALID,917.135,VALID,0,VALID,100,VALID,-0.0849042,VALID,19.7038,VALID,101,VALID,0,
2009-01-05, 00:18:00,VALID,917.117,VALID,0,VALID,100,VALID,-0.0509425,VALID,19.7103,VALID,106,VALID,0,
2009-01-05, 00:19:00,VALID,917.112,VALID,0,VALID,100,VALID,-0.0339617,VALID,19.7103,VALID,110,VALID,0,
2009-01-05, 00:20:00,VALID,917.092,VALID,0,VALID,100,VALID,-0.0509425,VALID,19.7068,VALID,125,VALID,0,
2009-01-05, 00:21:00,VALID,917.077,VALID,0,VALID,100,VALID,-0.0169808,VALID,19.7235,VALID,140,VALID,0.0493608,
2009-01-05, 00:22:00,VALID,917.062,VALID,0,VALID,100,VALID,-0.0849042,VALID,19.7235,VALID,140,VALID,0,
2009-01-05, 00:23:00,VALID,917.047,VALID,0,VALID,100,VALID,-0.152827,VALID,19.7377,VALID,137,VALID,0,
2009-01-05, 00:24:00,VALID,917.04,VALID,0,VALID,100,VALID,-0.118866,VALID,19.7435,VALID,135,VALID,0,
2009-01-05, 00:25:00,VALID,917.035,VALID,0,VALID,100,VALID,-0.101885,VALID,19.7532,VALID,136,VALID,0,
2009-01-05, 00:26:00,VALID,917.025,VALID,0,VALID,100,VALID,-0.118866,VALID,19.7694,VALID,147,VALID,0.0537791,
2009-01-05, 00:27:00,VALID,917.027,VALID,0,VALID,100,VALID,-0.101885,VALID,19.7862,VALID,152,VALID,0.0205793,
2009-01-05, 00:28:00,VALID,917.031,VALID,0,VALID,100,VALID,-0.101885,VALID,19.7889,VALID,152,VALID,0,
2009-01-05, 00:29:00,VALID,917.047,VALID,0,VALID,100,VALID,-0.135847,VALID,19.7927,VALID,154,VALID,0.0752841,
2009-01-05, 00:30:00,VALID,917.048,VALID,0,VALID,100,VALID,-0.169808,VALID,19.8089,VALID,159,VALID,0,
2009-01-05, 00:31:00,VALID,917.044,VALID,0,VALID,100,VALID,-0.118866,VALID,19.8084,VALID,159,VALID,0.103087,
2009-01-05, 00:32:01,VALID,917.028,VALID,0,VALID,100,VALID,-0.118866,VALID,19.8186,VALID,157,VALID,0.401105,
2009-01-05, 00:33:01,VALID,917.01,VALID,0,VALID,100,VALID,-0.118866,VALID,19.8184,VALID,148,VALID,0.0997869,
2009-01-05, 00:34:00,VALID,916.992,VALID,0,VALID,100,VALID,-0.169808,VALID,19.8184,VALID,147,VALID,0,
2009-01-05, 00:35:01,VALID,916.98,VALID,0,VALID,100,VALID,-0.135847,VALID,19.8249,VALID,159,VALID,0,
2009-01-05, 00:36:00,VALID,916.971,VALID,0,VALID,100,VALID,-0.135847,VALID,19.8179,VALID,158,VALID,0,
2009-01-05, 00:37:00,VALID,916.96,VALID,0,VALID,100,VALID,-0.0849042,VALID,19.8313,VALID,155,VALID,0,
2009-01-05, 00:38:00,VALID,916.953,VALID,0,VALID,100,VALID,-0.0509425,VALID,19.8174,VALID,148,VALID,0,
2009-01-05, 00:39:00,VALID,916.937,VALID,0,VALID,100,VALID,-0.0509425,VALID,19.8209,VALID,144,VALID,0,
2009-01-05, 00:40:00,VALID,916.923,VALID,0,VALID,100,VALID,-0.0509425,VALID,19.8176,VALID,142,VALID,0.840376,
2009-01-05, 00:41:00,VALID,916.914,VALID,0,VALID,100,VALID,0,VALID,19.8139,VALID,140,VALID,0.987926,
2009-01-05, 00:42:00,VALID,916.898,VALID,0,VALID,100,VALID,-0.0509425,VALID,19.8144,VALID,141,VALID,0.982329,
2009-01-05, 00:43:00,VALID,916.88,VALID,0,VALID,100,VALID,-0.0339617,VALID,19.8076,VALID,130,VALID,0.180618,
2009-01-05, 00:44:00,VALID,916.861,VALID,0,VALID,100,VALID,-0.0679233,VALID,19.8046,VALID,139,VALID,0.00285823,
2009-01-05, 00:45:01,VALID,916.843,VALID,0,VALID,100,VALID,-0.0169808,VALID,19.8076,VALID,132,VALID,0,
2009-01-05, 00:46:00,VALID,916.819,VALID,0,VALID,100,VALID,-0.0509425,VALID,19.8141,VALID,151,VALID,0.106136,
2009-01-05, 00:47:01,VALID,916.792,VALID,0,VALID,100,VALID,-0.0339617,VALID,19.8076,VALID,147,VALID,0,
2009-01-05, 00:48:00,VALID,916.781,VALID,0,VALID,100,VALID,-0.0509425,VALID,19.8011,VALID,156,VALID,0.843941,
2009-01-05, 00:49:01,VALID,916.78,VALID,0,VALID,100,VALID,-0.0509425,VALID,19.7946,VALID,145,VALID,0.430382,
2009-01-05, 00:50:01,VALID,916.778,VALID,0,VALID,100,VALID,-0.0509425,VALID,19.7917,VALID,151,VALID,0,
2009-01-05, 00:51:00,VALID,916.791,VALID,0,VALID,100,VALID,-0.0679233,VALID,19.7819,VALID,149,VALID,0.0416667,
2009-01-05, 00:52:00,VALID,916.797,VALID,0,VALID,100,VALID,-0.0169808,VALID,19.7582,VALID,150,VALID,0,
2009-01-05, 00:53:00,VALID,916.796,VALID,0,VALID,100,VALID,-0.0169808,VALID,19.756,VALID,133,VALID,0,
2009-01-05, 00:54:01,VALID,916.796,VALID,0,VALID,100,VALID,-0.0169808,VALID,19.7395,VALID,119,VALID,0,
2009-01-05, 00:55:00,VALID,916.766,VALID,0,VALID,100,VALID,-0.0509425,VALID,19.7203,VALID,125,VALID,0.0597747,
2009-01-05, 00:56:00,VALID,916.741,VALID,0,VALID,100,VALID,-0.0509425,VALID,19.7038,VALID,129,VALID,0,
2009-01-05, 00:57:01,VALID,916.725,VALID,0,VALID,100,VALID,-0.0169808,VALID,19.6976,VALID,132,VALID,0.0594512,
2009-01-05, 00:58:00,VALID,916.714,VALID,0,VALID,100,VALID,-0.0849042,VALID,19.6743,VALID,136,VALID,0.0881177,
2009-01-05, 00:59:01,VALID,916.703,VALID,0,VALID,100,VALID,-0.0679233,VALID,19.6616,VALID,134,VALID,0,
2009-01-05, 01:00:00,VALID,916.69,VALID,0,VALID,100,VALID,-0.0679233,VALID,19.6489,VALID,129,VALID,0,
2009-01-05, 01:01:00,VALID,916.695,VALID,0,VALID,100,VALID,-0.0679233,VALID,19.6124,VALID,124,VALID,0,
2009-01-05, 01:02:00,VALID,916.68,VALID,0,VALID,100,VALID,-0.0509425,VALID,19.5892,VALID,124,VALID,0,
2009-01-05, 01:03:00,VALID,916.709,VALID,0,VALID,100,VALID,-0.0169808,VALID,19.5765,VALID,130,VALID,0,
2009-01-05, 01:04:00,VALID,916.674,VALID,0,VALID,100,VALID,-0.0169808,VALID,19.587,VALID,135,VALID,0,
2009-01-05, 01:05:01,VALID,916.663,VALID,0,VALID,100,VALID,-0.0339617,VALID,19.5738,VALID,135,VALID,0,
2009-01-05, 01:06:00,VALID,916.649,VALID,0,VALID,100,VALID,-0.0169808,VALID,19.571,VALID,135,VALID,0,
2009-01-05, 01:07:00,VALID,916.632,VALID,0,VALID,100,VALID,-0.0509425,VALID,19.5608,VALID,135,VALID,0,
2009-01-05, 01:08:01,VALID,916.627,VALID,0,VALID,100,VALID,0,VALID,19.5466,VALID,134,VALID,0,
2009-01-05, 01:09:00,VALID,916.619,VALID,0,VALID,100,VALID,0,VALID,19.5338,VALID,130,VALID,0,
2009-01-05, 01:10:01,VALID,916.613,VALID,0,VALID,100,VALID,0.0509425,VALID,19.5201,VALID,119,VALID,0,
2009-01-05, 01:11:01,VALID,916.612,VALID,0,VALID,100,VALID,0,VALID,19.5044,VALID,118,VALID,0,
2009-01-05, 01:12:00,VALID,916.615,VALID,0,VALID,100,VALID,0.0169808,VALID,19.4819,VALID,113,VALID,0,
2009-01-05, 01:13:00,VALID,916.613,VALID,0,VALID,100,VALID,0,VALID,19.4585,VALID,113,VALID,0,
2009-01-05, 01:14:00,VALID,916.618,VALID,0,VALID,100,VALID,0.0169808,VALID,19.459,VALID,113,VALID,0,
2009-01-05, 01:15:00,VALID,916.609,VALID,0,VALID,100,VALID,0.0339617,VALID,19.455,VALID,119,VALID,0,
2009-01-05, 01:16:00,VALID,916.628,VALID,0,VALID,100,VALID,0,VALID,19.4385,VALID,122,VALID,0,
2009-01-05, 01:17:01,VALID,916.617,VALID,0,VALID,100,VALID,0.0169808,VALID,19.443,VALID,122,VALID,0,
2009-01-05, 01:18:01,VALID,916.633,VALID,0,VALID,100,VALID,0.0339617,VALID,19.4298,VALID,123,VALID,0,
2009-01-05, 01:19:00,VALID,916.623,VALID,0,VALID,100,VALID,0,VALID,19.4268,VALID,128,VALID,0,
2009-01-05, 01:20:00,VALID,916.63,VALID,0,VALID,100,VALID,0,VALID,19.4168,VALID,142,VALID,0,
2009-01-05, 01:21:01,VALID,916.622,VALID,0,VALID,100,VALID,0,VALID,19.4268,VALID,134,VALID,0,
2009-01-05, 01:22:00,VALID,916.631,VALID,0,VALID,100,VALID,-0.0169808,VALID,19.4333,VALID,131,VALID,0,
2009-01-05, 01:23:01,VALID,916.632,VALID,0,VALID,100,VALID,-0.118866,VALID,19.425,VALID,121,VALID,0,
2009-01-05, 01:24:01,VALID,916.624,VALID,0,VALID,100,VALID,-0.0849042,VALID,19.4145,VALID,122,VALID,0,
2009-01-05, 01:25:00,VALID,916.631,VALID,0,VALID,100,VALID,-0.0849042,VALID,19.4118,VALID,122,VALID,0,
2009-01-05, 01:26:00,VALID,916.633,VALID,0,VALID,100,VALID,-0.0849042,VALID,19.4218,VALID,122,VALID,0,
2009-01-05, 01:27:01,VALID,916.635,VALID,0,VALID,100,VALID,-0.101885,VALID,19.4282,VALID,122,VALID,0,
2009-01-05, 01:28:01,VALID,916.622,VALID,0,VALID,100,VALID,-0.0849042,VALID,19.4282,VALID,126,VALID,0,
2009-01-05, 01:29:01,VALID,916.622,VALID,0,VALID,100,VALID,-0.0849042,VALID,19.4285,VALID,129,VALID,0,
2009-01-05, 01:30:01,VALID,916.605,VALID,0,VALID,100,VALID,-0.101885,VALID,19.4215,VALID,118,VALID,0,
2009-01-05, 01:31:01,VALID,916.594,VALID,0,VALID,100,VALID,-0.0849042,VALID,19.4023,VALID,110,VALID,0,
2009-01-05, 01:32:01,VALID,916.572,VALID,0,VALID,100,VALID,-0.101885,VALID,19.3536,VALID,107,VALID,0,
2009-01-05, 01:33:01,VALID,916.568,VALID,0,VALID,100,VALID,-0.101885,VALID,19.3404,VALID,102,VALID,0,
2009-01-05, 01:34:00,VALID,916.563,VALID,0,VALID,100,VALID,-0.0849042,VALID,19.3239,VALID,97,VALID,0,
2009-01-05, 01:35:00,VALID,916.546,VALID,0,VALID,100,VALID,-0.101885,VALID,19.3179,VALID,99,VALID,0,
2009-01-05, 01:36:00,VALID,916.526,VALID,0,VALID,100,VALID,-0.0679233,VALID,19.3179,VALID,104,VALID,0,
2009-01-05, 01:37:00,VALID,916.521,VALID,0,VALID,100,VALID,-0.0679233,VALID,19.3269,VALID,117,VALID,0,
2009-01-05, 01:38:00,VALID,916.5,VALID,0,VALID,100,VALID,-0.0169808,VALID,19.3197,VALID,121,VALID,0,
2009-01-05, 01:39:00,VALID,916.491,VALID,0,VALID,100,VALID,0.0169808,VALID,19.316,VALID,116,VALID,0,
2009-01-05, 01:40:00,VALID,916.475,VALID,0,VALID,100,VALID,0.0339617,VALID,19.3058,VALID,111,VALID,0,
2009-01-05, 01:41:00,VALID,916.467,VALID,0,VALID,100,VALID,0.0169808,VALID,19.2898,VALID,117,VALID,0,
2009-01-05, 01:42:00,VALID,916.456,VALID,0,VALID,100,VALID,0,VALID,19.284,VALID,115,VALID,0,
2009-01-05, 01:43:00,VALID,916.457,VALID,0,VALID,100,VALID,-0.0169808,VALID,19.2539,VALID,120,VALID,0,
2009-01-05, 01:44:00,VALID,916.44,VALID,0,VALID,100,VALID,-0.0169808,VALID,19.2673,VALID,116,VALID,0,
2009-01-05, 01:45:00,VALID,916.448,VALID,0,VALID,100,VALID,0.0169808,VALID,19.2743,VALID,127,VALID,0,
2009-01-05, 01:46:00,VALID,916.44,VALID,0,VALID,100,VALID,0.0169808,VALID,19.2745,VALID,134,VALID,0,
2009-01-05, 01:47:00,VALID,916.422,VALID,0,VALID,100,VALID,0.0339617,VALID,19.2606,VALID,139,VALID,0.261889,
2009-01-05, 01:48:00,VALID,916.401,VALID,0,VALID,100,VALID,0.0509425,VALID,19.2469,VALID,142,VALID,0.00133384,
2009-01-05, 01:49:00,VALID,916.379,VALID,0,VALID,100,VALID,0.0509425,VALID,19.2573,VALID,140,VALID,0.0525568,
2009-01-05, 01:50:00,VALID,916.349,VALID,0,VALID,100,VALID,0.0679233,VALID,19.2673,VALID,147,VALID,0.106517,
2009-01-05, 01:51:00,VALID,916.328,VALID,0,VALID,100,VALID,0.0679233,VALID,19.2536,VALID,159,VALID,0,
2009-01-05, 01:52:00,VALID,916.309,VALID,0,VALID,100,VALID,0,VALID,19.2676,VALID,142,VALID,0,
2009-01-05, 01:53:00,VALID,916.29,VALID,0,VALID,100,VALID,0.0169808,VALID,19.2703,VALID,140,VALID,0,
2009-01-05, 01:54:00,VALID,916.283,VALID,0,VALID,100,VALID,0.0509425,VALID,19.2835,VALID,146,VALID,0,
2009-01-05, 01:55:00,VALID,916.278,VALID,0,VALID,100,VALID,-0.0169808,VALID,19.2736,VALID,148,VALID,0,
2009-01-05, 01:56:00,VALID,916.271,VALID,0,VALID,100,VALID,0,VALID,19.2611,VALID,149,VALID,0,
2009-01-05, 01:57:00,VALID,916.264,VALID,0,VALID,100,VALID,0,VALID,19.2384,VALID,149,VALID,0,
2009-01-05, 01:58:00,VALID,916.256,VALID,0,VALID,100,VALID,0,VALID,19.2314,VALID,155,VALID,0,
2009-01-05, 01:59:00,VALID,916.232,VALID,0,VALID,100,VALID,0,VALID,19.2418,VALID,136,VALID,0.163881,
2009-01-05, 02:00:00,VALID,916.227,VALID,0,VALID,100,VALID,0,VALID,19.2289,VALID,144,VALID,0.0545099,
2009-01-05, 02:01:00,VALID,916.213,VALID,0,VALID,100,VALID,0,VALID,19.2089,VALID,142,VALID,0.0325838,
2009-01-05, 02:02:00,VALID,916.184,VALID,0,VALID,100,VALID,0.0169808,VALID,19.2149,VALID,138,VALID,0.00327035,
2009-01-05, 02:03:00,VALID,916.17,VALID,0,VALID,100,VALID,0,VALID,19.2221,VALID,140,VALID,0.000744048,
2009-01-05, 02:04:00,VALID,916.154,VALID,0,VALID,100,VALID,0,VALID,19.2189,VALID,136,VALID,0,
2009-01-05, 02:05:00,VALID,916.113,VALID,0,VALID,100,VALID,0,VALID,19.2189,VALID,125,VALID,0,
2009-01-05, 02:06:00,VALID,916.072,VALID,0,VALID,100,VALID,0,VALID,19.2059,VALID,122,VALID,0.146984,
2009-01-05, 02:07:00,VALID,916.052,VALID,0,VALID,100,VALID,0,VALID,19.1925,VALID,119,VALID,0.0364583,
2009-01-05, 02:08:00,VALID,916.024,VALID,0,VALID,100,VALID,0,VALID,19.1897,VALID,111,VALID,0.862253,
2009-01-05, 02:09:00,VALID,916.002,VALID,0,VALID,100,VALID,0,VALID,19.1698,VALID,109,VALID,0.760547,
2009-01-05, 02:10:00,VALID,915.98,VALID,0,VALID,100,VALID,0,VALID,19.1371,VALID,114,VALID,0.758854,
2009-01-05, 02:11:00,VALID,915.96,VALID,0,VALID,100,VALID,0.0169808,VALID,19.1176,VALID,111,VALID,1.01864,
2009-01-05, 02:12:00,VALID,915.951,VALID,0,VALID,100,VALID,0,VALID,19.1051,VALID,114,VALID,0.550604,
2009-01-05, 02:13:00,VALID,915.949,VALID,0,VALID,100,VALID,0.0169808,VALID,19.0789,VALID,119,VALID,0.00461648,
2009-01-05, 02:14:00,VALID,915.941,VALID,0,VALID,100,VALID,-0.0169808,VALID,19.0762,VALID,139,VALID,0.00651042,
2009-01-05, 02:15:00,VALID,915.927,VALID,0,VALID,100,VALID,0.0169808,VALID,19.0662,VALID,135,VALID,0.184375,
2009-01-05, 02:16:00,VALID,915.911,VALID,0,VALID,100,VALID,0,VALID,19.0502,VALID,125,VALID,0.00243056,
2009-01-05, 02:17:00,VALID,915.889,VALID,0,VALID,100,VALID,0,VALID,19.0201,VALID,111,VALID,0,
2009-01-05, 02:18:00,VALID,915.87,VALID,0,VALID,100,VALID,0.0169808,VALID,19.021,VALID,108,VALID,0,
2009-01-05, 02:19:00,VALID,915.855,VALID,0,VALID,100,VALID,0,VALID,19.0006,VALID,124,VALID,0,
2009-01-05, 02:20:00,VALID,915.845,VALID,0,VALID,100,VALID,0,VALID,19.0041,VALID,135,VALID,0,
2009-01-05, 02:21:00,VALID,915.834,VALID,0,VALID,100,VALID,0.0509425,VALID,19.0011,VALID,124,VALID,0,
2009-01-05, 02:22:00,VALID,915.815,VALID,0,VALID,100,VALID,-0.0169808,VALID,19.0016,VALID,119,VALID,0,
2009-01-05, 02:23:00,VALID,915.809,VALID,0,VALID,100,VALID,-0.0679233,VALID,18.9861,VALID,122,VALID,0,
2009-01-05, 02:24:00,VALID,915.794,VALID,0,VALID,100,VALID,-0.101885,VALID,18.9831,VALID,128,VALID,0,
2009-01-05, 02:25:00,VALID,915.785,VALID,0,VALID,100,VALID,-0.0849042,VALID,18.9726,VALID,126,VALID,0,
2009-01-05, 02:26:00,VALID,915.776,VALID,0,VALID,100,VALID,-0.101885,VALID,18.9666,VALID,128,VALID,0,
2009-01-05, 02:27:00,VALID,915.779,VALID,0,VALID,100,VALID,-0.0849042,VALID,18.9863,VALID,130,VALID,0,
2009-01-05, 02:28:00,VALID,915.774,VALID,0,VALID,100,VALID,-0.0849042,VALID,18.9828,VALID,129,VALID,0,
2009-01-05, 02:29:00,VALID,915.759,VALID,0,VALID,100,VALID,-0.101885,VALID,18.9935,VALID,129,VALID,0,
2009-01-05, 02:30:00,VALID,915.751,VALID,0,VALID,100,VALID,-0.101885,VALID,18.9863,VALID,129,VALID,0,
2009-01-05, 02:31:00,VALID,915.733,VALID,0,VALID,100,VALID,-0.101885,VALID,18.9933,VALID,133,VALID,0,
2009-01-05, 02:32:00,VALID,915.736,VALID,0,VALID,100,VALID,-0.0849042,VALID,18.9993,VALID,101,VALID,0,
2009-01-05, 02:33:00,VALID,915.705,VALID,0,VALID,100,VALID,-0.0849042,VALID,18.999,VALID,121,VALID,0,
2009-01-05, 02:34:00,VALID,915.693,VALID,0,VALID,100,VALID,-0.101885,VALID,18.9923,VALID,131,VALID,0,
2009-01-05, 02:35:00,VALID,915.671,VALID,0,VALID,100,VALID,-0.101885,VALID,18.9995,VALID,128,VALID,0,
2009-01-05, 02:36:00,VALID,915.649,VALID,0,VALID,100,VALID,-0.0849042,VALID,19.0092,VALID,135,VALID,0,
2009-01-05, 02:37:00,VALID,915.645,VALID,0,VALID,100,VALID,-0.0679233,VALID,19.0213,VALID,132,VALID,0,
2009-01-05, 02:38:00,VALID,915.635,VALID,0,VALID,100,VALID,0.0339617,VALID,19.0365,VALID,132,VALID,0,
2009-01-05, 02:39:00,VALID,915.641,VALID,0,VALID,100,VALID,0.0169808,VALID,19.0298,VALID,132,VALID,0,
2009-01-05, 02:40:00,VALID,915.645,VALID,0,VALID,100,VALID,0,VALID,19.0298,VALID,132,VALID,0,
2009-01-05, 02:41:00,VALID,915.637,VALID,0,VALID,100,VALID,0,VALID,19.04,VALID,132,VALID,0,
2009-01-05, 02:42:00,VALID,915.632,VALID,0,VALID,100,VALID,0.0339617,VALID,19.033,VALID,132,VALID,0,
2009-01-05, 02:43:00,VALID,915.621,VALID,0,VALID,100,VALID,0.0509425,VALID,19.03,VALID,132,VALID,0,
2009-01-05, 02:44:00,VALID,915.613,VALID,0,VALID,100,VALID,0.0339617,VALID,19.0071,VALID,132,VALID,0,
2009-01-05, 02:45:00,VALID,915.603,VALID,0,VALID,100,VALID,0.0169808,VALID,18.9973,VALID,132,VALID,0,
2009-01-05, 02:46:00,VALID,915.593,VALID,0,VALID,100,VALID,0.0169808,VALID,18.9973,VALID,135,VALID,0,
2009-01-05, 02:47:00,VALID,915.597,VALID,0,VALID,100,VALID,0,VALID,18.9809,VALID,145,VALID,0,
2009-01-05, 02:48:00,VALID,915.586,VALID,0,VALID,100,VALID,0.0509425,VALID,18.9744,VALID,145,VALID,0,
2009-01-05, 02:49:00,VALID,915.604,VALID,0,VALID,100,VALID,0.0509425,VALID,18.9749,VALID,146,VALID,0,
2009-01-05, 02:50:00,VALID,915.594,VALID,0,VALID,100,VALID,0.0679233,VALID,18.9617,VALID,146,VALID,0,
2009-01-05, 02:51:00,VALID,915.588,VALID,0,VALID,100,VALID,0,VALID,18.9552,VALID,141,VALID,0,
2009-01-05, 02:52:00,VALID,915.578,VALID,0,VALID,100,VALID,0.0339617,VALID,18.9364,VALID,130,VALID,0,
2009-01-05, 02:53:00,VALID,915.57,VALID,0,VALID,100,VALID,-0.0169808,VALID,18.8917,VALID,123,VALID,0,
2009-01-05, 02:54:00,VALID,915.56,VALID,0,VALID,100,VALID,-0.0679233,VALID,18.8628,VALID,135,VALID,0.0755814,
2009-01-05, 02:55:00,VALID,915.546,VALID,0,VALID,100,VALID,-0.0169808,VALID,18.8403,VALID,141,VALID,0.119851,
2009-01-05, 02:56:00,VALID,915.528,VALID,0,VALID,100,VALID,-0.0679233,VALID,18.8144,VALID,141,VALID,0.0292039,
2009-01-05, 02:57:00,VALID,915.501,VALID,0,VALID,100,VALID,-0.0169808,VALID,18.7882,VALID,142,VALID,0.000169837,
2009-01-05, 02:58:00,VALID,915.471,VALID,0,VALID,100,VALID,-0.0339617,VALID,18.7585,VALID,141,VALID,0.22894,
2009-01-05, 02:59:00,VALID,915.447,VALID,0,VALID,100,VALID,0,VALID,18.7557,VALID,146,VALID,0.0479403,
2009-01-05, 03:00:00,VALID,915.408,VALID,0,VALID,100,VALID,-0.0169808,VALID,18.7587,VALID,144,VALID,0.0731707,
2009-01-05, 03:01:00,VALID,915.378,VALID,0,VALID,100,VALID,0,VALID,18.7455,VALID,156,VALID,0,
2009-01-05, 03:02:00,VALID,915.362,VALID,0,VALID,100,VALID,-0.0169808,VALID,18.7263,VALID,150,VALID,0,
2009-01-05, 03:03:00,VALID,915.348,VALID,0,VALID,100,VALID,-0.0339617,VALID,18.7103,VALID,154,VALID,0,
2009-01-05, 03:04:00,VALID,915.337,VALID,0,VALID,100,VALID,-0.0169808,VALID,18.7066,VALID,160,VALID,0,
2009-01-05, 03:05:00,VALID,915.331,VALID,0,VALID,100,VALID,-0.0169808,VALID,18.7171,VALID,154,VALID,0,
2009-01-05, 03:06:00,VALID,915.325,VALID,0,VALID,100,VALID,-0.0169808,VALID,18.6971,VALID,133,VALID,0,
2009-01-05, 03:07:00,VALID,915.312,VALID,0,VALID,100,VALID,0,VALID,18.6876,VALID,132,VALID,0,
2009-01-05, 03:08:00,VALID,915.29,VALID,0,VALID,100,VALID,-0.0169808,VALID,18.6612,VALID,98,VALID,0,
2009-01-05, 03:09:00,VALID,915.279,VALID,0,VALID,100,VALID,-0.0509425,VALID,18.629,VALID,65,VALID,0,
2009-01-05, 03:10:00,VALID,915.267,VALID,0,VALID,100,VALID,-0.0339617,VALID,18.6,VALID,74,VALID,0,
2009-01-05, 03:11:00,VALID,915.269,VALID,0,VALID,100,VALID,-0.0339617,VALID,18.5674,VALID,105,VALID,0,
2009-01-05, 03:12:00,VALID,915.265,VALID,0,VALID,100,VALID,-0.0169808,VALID,18.5611,VALID,105,VALID,0,
2009-01-05, 03:13:00,VALID,915.287,VALID,0,VALID,100,VALID,-0.0509425,VALID,18.5417,VALID,105,VALID,0,
2009-01-05, 03:14:00,VALID,915.291,VALID,0,VALID,100,VALID,-0.0169808,VALID,18.5287,VALID,105,VALID,0,
2009-01-05, 03:15:00,VALID,915.299,VALID,0,VALID,100,VALID,-0.0339617,VALID,18.5254,VALID,105,VALID,0,
2009-01-05, 03:16:00,VALID,915.296,VALID,0,VALID,100,VALID,-0.0679233,VALID,18.519,VALID,105,VALID,0,
2009-01-05, 03:17:00,VALID,915.284,VALID,0,VALID,100,VALID,-0.0509425,VALID,18.5157,VALID,105,VALID,0,
2009-01-05, 03:18:00,VALID,915.292,VALID,0,VALID,100,VALID,-0.0679233,VALID,18.509,VALID,105,VALID,0,
2009-01-05, 03:19:00,VALID,915.294,VALID,0,VALID,100,VALID,-0.0169808,VALID,18.4993,VALID,105,VALID,0,
2009-01-05, 03:20:00,VALID,915.298,VALID,0,VALID,100,VALID,-0.0169808,VALID,18.4733,VALID,105,VALID,0,
2009-01-05, 03:21:00,VALID,915.318,VALID,0,VALID,100,VALID,-0.0339617,VALID,18.4735,VALID,105,VALID,0,
2009-01-05, 03:22:00,VALID,915.314,VALID,0,VALID,100,VALID,-0.0509425,VALID,18.4703,VALID,106,VALID,0,
2009-01-05, 03:23:00,VALID,915.31,VALID,0,VALID,100,VALID,0,VALID,18.4803,VALID,114,VALID,0,
2009-01-05, 03:24:00,VALID,915.314,VALID,0,VALID,100,VALID,-0.0169808,VALID,18.4606,VALID,108,VALID,0,
2009-01-05, 03:25:00,VALID,915.311,VALID,0,VALID,100,VALID,-0.0339617,VALID,18.4379,VALID,103,VALID,0,
2009-01-05, 03:26:00,VALID,915.309,VALID,0,VALID,100,VALID,-0.0339617,VALID,18.4284,VALID,109,VALID,0,
2009-01-05, 03:27:00,VALID,915.297,VALID,0,VALID,100,VALID,-0.0339617,VALID,18.4339,VALID,109,VALID,0,
2009-01-05, 03:28:00,VALID,915.306,VALID,0,VALID,100,VALID,-0.0509425,VALID,18.4541,VALID,110,VALID,0,
2009-01-05, 03:29:00,VALID,915.31,VALID,0,VALID,100,VALID,-0.0679233,VALID,18.4481,VALID,117,VALID,0,
2009-01-05, 03:30:00,VALID,915.312,VALID,0,VALID,100,VALID,-0.0169808,VALID,18.4217,VALID,118,VALID,0,
2009-01-05, 03:31:00,VALID,915.306,VALID,0,VALID,100,VALID,-0.0509425,VALID,18.4251,VALID,126,VALID,0,
2009-01-05, 03:32:00,VALID,915.314,VALID,0,VALID,100,VALID,-0.0339617,VALID,18.4214,VALID,130,VALID,0,
2009-01-05, 03:33:00,VALID,915.31,VALID,0,VALID,100,VALID,-0.0509425,VALID,18.4184,VALID,128,VALID,0,
2009-01-05, 03:34:00,VALID,915.312,VALID,0,VALID,100,VALID,-0.0169808,VALID,18.405,VALID,128,VALID,0,
2009-01-05, 03:35:00,VALID,915.311,VALID,0,VALID,100,VALID,-0.0169808,VALID,18.4214,VALID,136,VALID,0,
2009-01-05, 03:36:00,VALID,915.316,VALID,0,VALID,100,VALID,-0.0339617,VALID,18.4281,VALID,143,VALID,0,
2009-01-05, 03:37:00,VALID,915.325,VALID,0,VALID,100,VALID,-0.0679233,VALID,18.4212,VALID,137,VALID,0,
2009-01-05, 03:38:00,VALID,915.331,VALID,0,VALID,100,VALID,-0.0339617,VALID,18.4342,VALID,130,VALID,0,
2009-01-05, 03:39:00,VALID,915.346,VALID,0,VALID,100,VALID,0,VALID,18.4439,VALID,126,VALID,0,
2009-01-05, 03:40:00,VALID,915.358,VALID,0,VALID,100,VALID,-0.0169808,VALID,18.4374,VALID,125,VALID,0,
2009-01-05, 03:41:00,VALID,915.347,VALID,0,VALID,100,VALID,-0.0679233,VALID,18.4444,VALID,124,VALID,0,
2009-01-05, 03:42:00,VALID,915.347,VALID,0,VALID,100,VALID,-0.0679233,VALID,18.4476,VALID,124,VALID,0,
2009-01-05, 03:43:00,VALID,915.353,VALID,0,VALID,100,VALID,-0.0509425,VALID,18.4115,VALID,124,VALID,0,
2009-01-05, 03:44:00,VALID,915.353,VALID,0,VALID,100,VALID,-0.0339617,VALID,18.4017,VALID,121,VALID,0,
2009-01-05, 03:45:00,VALID,915.331,VALID,0,VALID,100,VALID,-0.0339617,VALID,18.3959,VALID,121,VALID,0,
2009-01-05, 03:46:00,VALID,915.34,VALID,0,VALID,100,VALID,-0.0169808,VALID,18.3797,VALID,121,VALID,0,
2009-01-05, 03:47:00,VALID,915.332,VALID,0,VALID,100,VALID,-0.0509425,VALID,18.3925,VALID,122,VALID,0,
2009-01-05, 03:48:00,VALID,915.323,VALID,0,VALID,100,VALID,-0.0339617,VALID,18.4219,VALID,122,VALID,0,
2009-01-05, 03:49:00,VALID,915.319,VALID,0,VALID,100,VALID,-0.0509425,VALID,18.4413,VALID,122,VALID,0.263626,